| time (UTC) | temp F | wind direction | speed knots | gust knots | rain 1hr in | rain 24hr in | rain mn in | humidity % | barometer mb |
| 20260510020754 | 79 | 45 | 0.9 | 3.5 | 0.00 | 0.00 | 0.00 | 63 | 1008.3 |
| 20260510020253 | 78 | 328 | 0.9 | 2.6 | 0.00 | 0.00 | 0.00 | 61 | 1008.1 |
| 20260510015750 | 78 | 321 | 0.9 | 1.7 | 0.00 | 0.00 | 0.00 | 61 | 1007.8 |
| 20260510015246 | 78 | 168 | 0.0 | 0.0 | 0.00 | 0.00 | 0.00 | 61 | 1007.6 |
| 20260510014741 | 79 | 230 | 0.0 | 0.9 | 0.00 | 0.00 | 0.00 | 60 | 1007.5 |
| 20260510014239 | 79 | 230 | 0.0 | 0.9 | 0.00 | 0.00 | 0.00 | 58 | 1007.3 |
| 20260510013735 | 80 | 5 | 0.0 | 1.7 | 0.00 | 0.00 | 0.00 | 56 | 1007.1 |
| 20260510013230 | 79 | 359 | 1.7 | 2.6 | 0.00 | 0.00 | 0.00 | 57 | 1007.4 |
| 20260510012725 | 80 | 338 | 1.7 | 1.7 | 0.00 | 0.00 | 0.00 | 57 | 1007.4 |
| 20260510012220 | 80 | 5 | 0.0 | 1.7 | 0.00 | 0.00 | 0.00 | 57 | 1007.7 |
| 20260510011715 | 80 | 306 | 0.0 | 1.7 | 0.00 | 0.00 | 0.00 | 56 | 1007.5 |
| 20260510011210 | 80 | 287 | 0.0 | 2.6 | 0.00 | 0.00 | 0.00 | 55 | 1007.2 |
| 20260510010707 | 80 | 206 | 1.7 | 1.7 | 0.00 | 0.00 | 0.00 | 55 | 1007.2 |
| 20260510010204 | 80 | 15 | 0.0 | 2.6 | 0.00 | 0.00 | 0.00 | 56 | 1007.1 |
| 20260510005701 | 80 | 112 | 0.0 | 4.3 | 0.00 | 0.00 | 0.00 | 57 | 1007.1 |
| 20260510005157 | 80 | 212 | 1.7 | 3.5 | 0.00 | 0.00 | 0.00 | 59 | 1007.2 |
| 20260510004655 | 81 | 207 | 1.7 | 5.2 | 0.00 | 0.00 | 0.00 | 61 | 1006.9 |
| 20260510004153 | 81 | 149 | 3.5 | 5.2 | 0.00 | 0.00 | 0.00 | 60 | 1006.9 |
| 20260510003650 | 81 | 190 | 2.6 | 7.0 | 0.00 | 0.00 | 0.00 | 58 | 1006.7 |
| 20260510003146 | 81 | 195 | 1.7 | 5.2 | 0.00 | 0.00 | 0.00 | 55 | 1006.9 |
| 20260510002646 | 81 | 160 | 5.2 | 7.0 | 0.00 | 0.00 | 0.00 | 53 | 1007.1 |
| 20260510002143 | 80 | 178 | 3.5 | 12.2 | 0.00 | 0.00 | 0.00 | 52 | 1007.1 |
| 20260510001640 | 80 | 164 | 0.9 | 7.0 | 0.00 | 0.00 | 0.00 | 55 | 1006.9 |
| 20260510001138 | 80 | 130 | 2.6 | 11.3 | 0.00 | 0.00 | 0.00 | 57 | 1007.2 |
| 20260510000638 | 82 | 170 | 5.2 | 13.0 | 0.00 | 0.00 | 0.00 | 61 | 1006.9 |
| 20260510000136 | 85 | 161 | 3.5 | 9.6 | 0.00 | 0.00 | 0.00 | 62 | 1007.1 |
| 20260509235632 | 87 | 142 | 1.7 | 3.5 | 0.00 | 0.00 | 0.00 | 62 | 1006.7 |
| 20260509235129 | 87 | 126 | 2.6 | 3.5 | 0.00 | 0.00 | 0.00 | 64 | 1006.5 |
| 20260509234625 | 86 | 152 | 3.5 | 7.8 | 0.00 | 0.00 | 0.00 | 64 | 1006.5 |
| 20260509234123 | 87 | 163 | 2.6 | 5.2 | 0.00 | 0.00 | 0.00 | 65 | 1006.6 |
| 20260509233620 | 87 | 145 | 6.1 | 6.1 | 0.00 | 0.00 | 0.00 | 63 | 1006.4 |
| 20260509233118 | 88 | 132 | 4.3 | 6.1 | 0.00 | 0.00 | 0.00 | 63 | 1006.5 |
| 20260509232614 | 89 | 155 | 2.6 | 2.6 | 0.00 | 0.00 | 0.00 | 62 | 1006.4 |
| 20260509232111 | 89 | 146 | 1.7 | 3.5 | 0.00 | 0.00 | 0.00 | 61 | 1006.4 |
| 20260509231607 | 89 | 116 | 3.5 | 3.5 | 0.00 | 0.00 | 0.00 | 59 | 1006.4 |
| 20260509231105 | 89 | 135 | 1.7 | 2.6 | 0.00 | 0.00 | 0.00 | 60 | 1006.2 |
| 20260509230601 | 89 | 139 | 1.7 | 4.3 | 0.00 | 0.00 | 0.00 | 57 | 1006.6 |
| 20260509230059 | 90 | 152 | 3.5 | 3.5 | 0.00 | 0.00 | 0.00 | 58 | 1006.1 |
| 20260509225554 | 90 | 72 | 0.0 | 2.6 | 0.00 | 0.00 | 0.00 | 57 | 1006.2 |
| 20260509225050 | 90 | 31 | 1.7 | 4.3 | 0.00 | 0.00 | 0.00 | 58 | 1006.1 |
| 20260509224545 | 90 | 142 | 1.7 | 2.6 | 0.00 | 0.00 | 0.00 | 57 | 1006.1 |
| 20260509224043 | 90 | 61 | 2.6 | 4.3 | 0.00 | 0.00 | 0.00 | 57 | 1006.0 |
| 20260509223539 | 92 | 45 | 1.7 | 3.5 | 0.00 | 0.00 | 0.00 | 56 | 1006.2 |
| 20260509223037 | 95 | 122 | 2.6 | 2.6 | 0.00 | 0.00 | 0.00 | 52 | 1006.1 |
| 20260509222533 | 94 | 228 | 0.0 | 3.5 | 0.00 | 0.00 | 0.00 | 52 | 1006.3 |
| 20260509222029 | 92 | 7 | 0.9 | 5.2 | 0.00 | 0.00 | 0.00 | 54 | 1006.2 |
| 20260509221525 | 93 | 30 | 1.7 | 3.5 | 0.00 | 0.00 | 0.00 | 54 | 1006.0 |
| 20260509221021 | 93 | 30 | 3.5 | 4.3 | 0.00 | 0.00 | 0.00 | 54 | 1005.9 |
| 20260509220517 | 94 | 354 | 1.7 | 1.7 | 0.00 | 0.00 | 0.00 | 53 | 1006.0 |
| 20260509220014 | 93 | 358 | 3.5 | 4.3 | 0.00 | 0.00 | 0.00 | 55 | 1005.9 |
| 20260509215509 | 92 | 291 | 3.5 | 3.5 | 0.00 | 0.00 | 0.00 | 57 | 1006.0 |
| 20260509215007 | 92 | 30 | 1.7 | 5.2 | 0.00 | 0.00 | 0.00 | 56 | 1006.1 |
| 20260509214504 | 93 | 37 | 1.7 | 2.6 | 0.00 | 0.00 | 0.00 | 57 | 1006.0 |
| 20260509214000 | 92 | 178 | 1.7 | 3.5 | 0.00 | 0.00 | 0.00 | 58 | 1005.9 |
| 20260509213456 | 91 | 108 | 1.7 | 3.5 | 0.00 | 0.00 | 0.00 | 60 | 1006.1 |
| 20260509212954 | 93 | 66 | 0.9 | 2.6 | 0.00 | 0.00 | 0.00 | 58 | 1006.2 |
| 20260509212451 | 92 | 33 | 2.6 | 2.6 | 0.00 | 0.00 | 0.00 | 58 | 1006.1 |
| 20260509211947 | 92 | 22 | 0.9 | 3.5 | 0.00 | 0.00 | 0.00 | 60 | 1006.2 |
| 20260509211443 | 92 | 227 | 1.7 | 2.6 | 0.00 | 0.00 | 0.00 | 57 | 1006.3 |
| 20260509210940 | 91 | 50 | 2.6 | 3.5 | 0.00 | 0.00 | 0.00 | 61 | 1006.4 |
| 20260509210437 | 91 | 59 | 1.7 | 2.6 | 0.00 | 0.00 | 0.00 | 62 | 1006.3 |
| 20260509205932 | 91 | 83 | 0.0 | 4.3 | 0.00 | 0.00 | 0.00 | 60 | 1006.3 |
| 20260509205427 | 91 | 319 | 3.5 | 5.2 | 0.00 | 0.00 | 0.00 | 62 | 1006.6 |
| 20260509204923 | 91 | 54 | 1.7 | 3.5 | 0.00 | 0.00 | 0.00 | 63 | 1006.5 |
| 20260509204419 | 91 | 152 | 0.0 | 3.5 | 0.00 | 0.00 | 0.00 | 60 | 1006.7 |
| 20260509203916 | 91 | 31 | 2.6 | 3.5 | 0.00 | 0.00 | 0.00 | 60 | 1006.8 |
| 20260509203412 | 91 | 51 | 1.7 | 3.5 | 0.00 | 0.00 | 0.00 | 63 | 1006.8 |
| 20260509202910 | 91 | 31 | 1.7 | 3.5 | 0.00 | 0.00 | 0.00 | 63 | 1007.0 |
| 20260509202405 | 91 | 348 | 0.0 | 3.5 | 0.00 | 0.00 | 0.00 | 64 | 1006.9 |
| 20260509201900 | 92 | 25 | 0.0 | 1.7 | 0.00 | 0.00 | 0.00 | 65 | 1006.9 |
| 20260509201356 | 90 | 39 | 1.7 | 3.5 | 0.00 | 0.00 | 0.00 | 67 | 1007.0 |
| 20260509200853 | 91 | 48 | 2.6 | 2.6 | 0.00 | 0.00 | 0.00 | 63 | 1006.9 |
| 20260509200348 | 90 | 347 | 0.9 | 4.3 | 0.00 | 0.00 | 0.00 | 65 | 1007.0 |
| 20260509195845 | 89 | 72 | 1.7 | 2.6 | 0.00 | 0.00 | 0.00 | 68 | 1007.3 |
| 20260509195345 | 89 | 322 | 0.0 | 2.6 | 0.00 | 0.00 | 0.00 | 66 | 1007.3 |
| 20260509194845 | 89 | 7 | 1.7 | 3.5 | 0.00 | 0.00 | 0.00 | 67 | 1007.4 |
| 20260509194341 | 91 | 89 | 1.7 | 2.6 | 0.00 | 0.00 | 0.00 | 65 | 1007.2 |
| 20260509193838 | 89 | 47 | 1.7 | 2.6 | 0.00 | 0.00 | 0.00 | 69 | 1007.4 |
| 20260509193338 | 89 | 345 | 1.7 | 3.5 | 0.00 | 0.00 | 0.00 | 68 | 1007.4 |
| 20260509192834 | 89 | 55 | 1.7 | 5.2 | 0.00 | 0.00 | 0.00 | 69 | 1007.4 |
| 20260509192330 | 89 | 320 | 1.7 | 6.1 | 0.00 | 0.00 | 0.00 | 68 | 1007.3 |
| 20260509191825 | 89 | 295 | 1.7 | 2.6 | 0.00 | 0.00 | 0.00 | 67 | 1007.4 |
| 20260509191321 | 88 | 8 | 3.5 | 3.5 | 0.00 | 0.00 | 0.00 | 65 | 1007.7 |
| 20260509190817 | 87 | 12 | 0.9 | 3.5 | 0.00 | 0.00 | 0.00 | 67 | 1007.6 |
| 20260509190315 | 87 | 15 | 1.7 | 3.5 | 0.00 | 0.00 | 0.00 | 67 | 1007.8 |
| 20260509185812 | 88 | 346 | 0.0 | 1.7 | 0.00 | 0.00 | 0.00 | 66 | 1007.6 |
| 20260509185308 | 88 | 128 | 0.0 | 2.6 | 0.00 | 0.00 | 0.00 | 66 | 1007.5 |
| 20260509184806 | 88 | 158 | 1.7 | 3.5 | 0.00 | 0.00 | 0.00 | 65 | 1007.7 |
| 20260509184303 | 87 | 186 | 0.0 | 2.6 | 0.00 | 0.00 | 0.00 | 69 | 1007.8 |
| 20260509183759 | 88 | 146 | 2.6 | 3.5 | 0.00 | 0.00 | 0.00 | 65 | 1007.9 |
| 20260509183255 | 89 | 258 | 1.7 | 2.6 | 0.00 | 0.00 | 0.00 | 68 | 1008.1 |
| 20260509182750 | 88 | 324 | 0.0 | 2.6 | 0.00 | 0.00 | 0.00 | 66 | 1008.0 |
| 20260509182248 | 89 | 116 | 1.7 | 1.7 | 0.00 | 0.00 | 0.00 | 66 | 1008.1 |
| 20260509181745 | 88 | 265 | 1.7 | 2.6 | 0.00 | 0.00 | 0.00 | 67 | 1008.1 |
| 20260509181243 | 88 | 89 | 0.0 | 2.6 | 0.00 | 0.00 | 0.00 | 67 | 1008.2 |
| 20260509180740 | 88 | 293 | 3.5 | 3.5 | 0.00 | 0.00 | 0.00 | 67 | 1008.5 |
| 20260509180236 | 87 | 89 | 0.0 | 4.3 | 0.00 | 0.00 | 0.00 | 71 | 1008.6 |
| 20260509175732 | 85 | 157 | 1.7 | 6.1 | 0.00 | 0.00 | 0.00 | 72 | 1008.3 |
| 20260509175229 | 85 | 138 | 1.7 | 4.3 | 0.00 | 0.00 | 0.00 | 73 | 1008.5 |
| 20260509174725 | 85 | 176 | 3.5 | 5.2 | 0.00 | 0.00 | 0.00 | 74 | 1008.7 |
| 20260509174220 | 85 | 125 | 1.7 | 4.3 | 0.00 | 0.00 | 0.00 | 74 | 1008.6 |
| 20260509173717 | 85 | 164 | 4.3 | 4.3 | 0.00 | 0.00 | 0.00 | 74 | 1008.9 |
| 20260509173212 | 85 | 144 | 1.7 | 5.2 | 0.00 | 0.00 | 0.00 | 75 | 1008.8 |
| 20260509172708 | 85 | 182 | 4.3 | 6.1 | 0.00 | 0.00 | 0.00 | 76 | 1008.5 |
| 20260509172205 | 86 | 139 | 1.7 | 6.1 | 0.00 | 0.00 | 0.00 | 75 | 1008.7 |
| 20260509171701 | 86 | 158 | 2.6 | 4.3 | 0.00 | 0.00 | 0.00 | 75 | 1008.7 |
| 20260509171157 | 85 | 136 | 3.5 | 5.2 | 0.00 | 0.00 | 0.00 | 77 | 1008.6 |
| 20260509170654 | 84 | 136 | 2.6 | 7.0 | 0.00 | 0.00 | 0.00 | 78 | 1008.7 |
| 20260509170150 | 84 | 179 | 3.5 | 5.2 | 0.00 | 0.00 | 0.00 | 77 | 1008.8 |
| 20260509165648 | 84 | 132 | 2.6 | 5.2 | 0.00 | 0.00 | 0.00 | 77 | 1008.7 |
| 20260509165144 | 84 | 137 | 2.6 | 2.6 | 0.00 | 0.00 | 0.00 | 78 | 1008.5 |
| 20260509164640 | 83 | 170 | 1.7 | 3.5 | 0.00 | 0.00 | 0.00 | 80 | 1008.4 |
| 20260509164136 | 82 | 177 | 0.0 | 0.9 | 0.00 | 0.00 | 0.00 | 82 | 1008.8 |
| 20260509163634 | 80 | 342 | 1.7 | 1.7 | 0.00 | 0.00 | 0.00 | 85 | 1008.7 |
| 20260509163129 | 80 | 211 | 0.0 | 1.7 | 0.00 | 0.00 | 0.00 | 85 | 1008.8 |
| 20260509162627 | 80 | 262 | 0.9 | 1.7 | 0.00 | 0.00 | 0.00 | 85 | 1009.0 |
| 20260509162123 | 80 | 261 | 0.9 | 1.7 | 0.00 | 0.00 | 0.00 | 85 | 1009.2 |
| 20260509161619 | 80 | 302 | 0.0 | 1.7 | 0.00 | 0.00 | 0.00 | 85 | 1009.2 |
| 20260509161114 | 79 | 292 | 1.7 | 1.7 | 0.00 | 0.00 | 0.00 | 86 | 1009.3 |
| 20260509160610 | 80 | 56 | 1.7 | 1.7 | 0.00 | 0.00 | 0.00 | 85 | 1009.1 |
| 20260509160105 | 79 | 28 | 1.7 | 1.7 | 0.00 | 0.00 | 0.00 | 86 | 1009.2 |
| 20260509155602 | 79 | 336 | 0.0 | 1.7 | 0.00 | 0.00 | 0.00 | 87 | 1009.2 |
| 20260509155058 | 79 | 5 | 0.9 | 2.6 | 0.00 | 0.00 | 0.00 | 88 | 1009.2 |
| 20260509154554 | 79 | 339 | 1.7 | 1.7 | 0.00 | 0.00 | 0.00 | 88 | 1009.1 |
| 20260509154052 | 78 | 55 | 0.9 | 2.6 | 0.00 | 0.00 | 0.00 | 88 | 1009.1 |
| 20260509153549 | 79 | 58 | 1.7 | 3.5 | 0.00 | 0.00 | 0.00 | 88 | 1009.1 |
| 20260509153046 | 79 | 347 | 1.7 | 1.7 | 0.00 | 0.00 | 0.00 | 87 | 1009.2 |
| 20260509152542 | 79 | 303 | 1.7 | 1.7 | 0.00 | 0.00 | 0.00 | 87 | 1009.1 |
| 20260509152040 | 79 | 286 | 0.0 | 1.7 | 0.00 | 0.00 | 0.00 | 88 | 1009.2 |
| 20260509151535 | 78 | 202 | 0.0 | 1.7 | 0.00 | 0.00 | 0.00 | 88 | 1009.0 |
| 20260509151033 | 79 | 146 | 0.0 | 0.9 | 0.00 | 0.00 | 0.00 | 88 | 1009.0 |
| 20260509150530 | 78 | 325 | 0.9 | 1.7 | 0.00 | 0.00 | 0.00 | 88 | 1009.1 |
| 20260509150029 | 78 | 260 | 0.0 | 1.7 | 0.00 | 0.00 | 0.00 | 89 | 1009.0 |
| 20260509145524 | 78 | 29 | 0.0 | 2.6 | 0.00 | 0.00 | 0.00 | 90 | 1009.0 |
| 20260509145019 | 78 | 35 | 1.7 | 3.5 | 0.00 | 0.00 | 0.00 | 89 | 1008.7 |
| 20260509144517 | 78 | 242 | 0.9 | 2.6 | 0.00 | 0.00 | 0.00 | 90 | 1008.5 |
| 20260509144014 | 78 | 351 | 0.9 | 2.6 | 0.00 | 0.00 | 0.00 | 90 | 1008.3 |
| 20260509143511 | 78 | 0 | 0.0 | 0.9 | 0.00 | 0.00 | 0.00 | 91 | 1008.4 |
| 20260509143009 | 78 | 286 | 0.0 | 0.9 | 0.00 | 0.00 | 0.00 | 91 | 1008.5 |
| 20260509142504 | 78 | 2 | 0.9 | 1.7 | 0.00 | 0.00 | 0.00 | 91 | 1008.5 |
| 20260509141959 | 77 | 304 | 0.9 | 1.7 | 0.00 | 0.00 | 0.00 | 92 | 1008.5 |
| 20260509141456 | 77 | 255 | 0.0 | 0.9 | 0.00 | 0.00 | 0.00 | 93 | 1008.5 |
| 20260509140948 | 77 | 269 | 0.0 | 1.7 | 0.00 | 0.00 | 0.00 | 93 | 1008.2 |
| 20260509140443 | 77 | 255 | 0.9 | 0.9 | 0.00 | 0.00 | 0.00 | 94 | 1008.1 |
| 20260509135942 | 76 | 309 | 0.0 | 0.9 | 0.00 | 0.00 | 0.00 | 94 | 1008.1 |
| 20260509135439 | 76 | 62 | 0.0 | 0.9 | 0.00 | 0.00 | 0.00 | 95 | 1008.1 |
| 20260509134937 | 76 | 244 | 0.0 | 1.7 | 0.00 | 0.00 | 0.00 | 95 | 1008.4 |
| 20260509134434 | 76 | 225 | 0.0 | 1.7 | 0.00 | 0.00 | 0.00 | 95 | 1008.5 |
| 20260509133931 | 76 | 204 | 1.7 | 2.6 | 0.00 | 0.00 | 0.00 | 95 | 1008.4 |
| 20260509133427 | 76 | 217 | 0.9 | 1.7 | 0.00 | 0.00 | 0.00 | 95 | 1008.4 |
| 20260509132926 | 76 | 242 | 0.0 | 0.9 | 0.00 | 0.00 | 0.00 | 96 | 1008.7 |
| 20260509132424 | 76 | 194 | 1.7 | 2.6 | 0.00 | 0.00 | 0.00 | 96 | 1008.8 |
| 20260509131921 | 76 | 230 | 0.0 | 0.9 | 0.00 | 0.00 | 0.00 | 97 | 1009.1 |
| 20260509131418 | 76 | 248 | 0.9 | 0.9 | 0.00 | 0.00 | 0.00 | 98 | 1009.3 |
| 20260509130915 | 76 | 339 | 0.0 | 1.7 | 0.00 | 0.00 | 0.00 | 98 | 1009.0 |
| 20260509130409 | 75 | 212 | 0.9 | 2.6 | 0.00 | 0.00 | 0.00 | 99 | 1009.1 |
| 20260509125907 | 75 | 184 | 0.9 | 2.6 | 0.00 | 0.00 | 0.00 | 99 | 1009.2 |
| 20260509125404 | 75 | 139 | 0.0 | 2.6 | 0.00 | 0.00 | 0.00 | 99 | 1008.9 |
| 20260509124900 | 75 | 174 | 0.9 | 1.7 | 0.00 | 0.00 | 0.00 | 99 | 1008.9 |
| 20260509124357 | 74 | 78 | 0.9 | 1.7 | 0.00 | 0.00 | 0.00 | 99 | 1009.0 |
| 20260509123854 | 74 | 225 | 1.7 | 2.6 | 0.00 | 0.00 | 0.00 | 99 | 1009.0 |
| 20260509123351 | 74 | 219 | 0.0 | 1.7 | 0.00 | 0.00 | 0.00 | 99 | 1008.9 |
| 20260509122847 | 74 | 176 | 1.7 | 3.5 | 0.00 | 0.00 | 0.00 | 99 | 1008.9 |
| 20260509122344 | 74 | 223 | 0.9 | 1.7 | 0.00 | 0.00 | 0.00 | 99 | 1009.1 |
| 20260509121841 | 74 | 264 | 0.0 | 0.9 | 0.00 | 0.00 | 0.00 | 99 | 1008.6 |
| 20260509121338 | 74 | 307 | 0.9 | 1.7 | 0.00 | 0.00 | 0.00 | 99 | 1008.7 |
| 20260509120836 | 74 | 234 | 0.0 | 0.9 | 0.00 | 0.00 | 0.00 | 99 | 1008.7 |
| 20260509120334 | 73 | 329 | 0.0 | 0.9 | 0.00 | 0.00 | 0.00 | 99 | 1008.6 |
| 20260509115831 | 73 | 222 | 0.9 | 1.7 | 0.00 | 0.00 | 0.00 | 99 | 1008.5 |
| 20260509115328 | 73 | 301 | 0.0 | 0.9 | 0.00 | 0.00 | 0.00 | 99 | 1008.1 |
| 20260509114826 | 73 | 257 | 0.0 | 1.7 | 0.00 | 0.00 | 0.00 | 99 | 1008.5 |
| 20260509114325 | 74 | 335 | 0.9 | 1.7 | 0.00 | 0.00 | 0.00 | 99 | 1008.7 |
| 20260509113824 | 74 | 347 | 0.0 | 1.7 | 0.00 | 0.00 | 0.00 | 99 | 1008.6 |
| 20260509113320 | 74 | 238 | 0.9 | 1.7 | 0.00 | 0.00 | 0.00 | 99 | 1008.6 |
| 20260509112817 | 74 | 323 | 1.7 | 1.7 | 0.00 | 0.00 | 0.00 | 99 | 1008.9 |
| 20260509112314 | 74 | 322 | 0.9 | 1.7 | 0.00 | 0.00 | 0.00 | 99 | 1008.9 |
| 20260509111811 | 74 | 359 | 1.7 | 2.6 | 0.00 | 0.00 | 0.00 | 99 | 1008.9 |
| 20260509111308 | 74 | 325 | 0.0 | 1.7 | 0.00 | 0.00 | 0.00 | 99 | 1008.6 |
| 20260509110806 | 74 | 329 | 1.7 | 1.7 | 0.00 | 0.00 | 0.00 | 99 | 1008.6 |
| 20260509110301 | 74 | 345 | 1.7 | 1.7 | 0.00 | 0.00 | 0.00 | 99 | 1008.8 |
| 20260509105800 | 74 | 2 | 1.7 | 3.5 | 0.00 | 0.00 | 0.00 | 99 | 1008.7 |
| 20260509105257 | 74 | 6 | 1.7 | 2.6 | 0.00 | 0.00 | 0.00 | 99 | 1008.5 |
| 20260509104754 | 74 | 354 | 1.7 | 1.7 | 0.00 | 0.00 | 0.00 | 99 | 1008.5 |
| 20260509104251 | 74 | 347 | 0.9 | 1.7 | 0.00 | 0.00 | 0.00 | 99 | 1008.2 |
| 20260509103749 | 74 | 320 | 1.7 | 2.6 | 0.00 | 0.00 | 0.00 | 99 | 1008.2 |
| 20260509103246 | 74 | 335 | 1.7 | 1.7 | 0.00 | 0.00 | 0.00 | 99 | 1008.1 |
| 20260509102744 | 74 | 282 | 0.0 | 1.7 | 0.00 | 0.00 | 0.00 | 99 | 1008.4 |
| 20260509102241 | 74 | 279 | 0.0 | 0.9 | 0.00 | 0.00 | 0.00 | 99 | 1008.3 |
| 20260509101738 | 74 | 191 | 0.0 | 1.7 | 0.00 | 0.00 | 0.00 | 99 | 1008.2 |
| 20260509101234 | 74 | 208 | 0.0 | 0.9 | 0.00 | 0.00 | 0.00 | 99 | 1008.0 |
| 20260509100731 | 74 | 175 | 1.7 | 2.6 | 0.00 | 0.00 | 0.00 | 99 | 1007.7 |
| 20260509100228 | 74 | 295 | 0.0 | 0.9 | 0.00 | 0.00 | 0.00 | 99 | 1007.5 |
| 20260509095725 | 74 | 245 | 0.9 | 1.7 | 0.00 | 0.00 | 0.00 | 99 | 1007.6 |
| 20260509095222 | 74 | 209 | 0.0 | 1.7 | 0.00 | 0.00 | 0.00 | 99 | 1007.6 |
| 20260509094719 | 74 | 295 | 0.0 | 1.7 | 0.00 | 0.00 | 0.00 | 98 | 1007.6 |
| 20260509094216 | 74 | 202 | 0.0 | 0.9 | 0.00 | 0.00 | 0.00 | 98 | 1007.7 |
| 20260509093714 | 74 | 339 | 0.0 | 1.7 | 0.00 | 0.00 | 0.00 | 98 | 1007.5 |
| 20260509093211 | 74 | 330 | 0.0 | 1.7 | 0.00 | 0.00 | 0.00 | 98 | 1007.7 |
| 20260509092709 | 75 | 23 | 0.9 | 1.7 | 0.00 | 0.00 | 0.00 | 98 | 1008.0 |
| 20260509092207 | 74 | 339 | 0.9 | 0.9 | 0.00 | 0.00 | 0.00 | 98 | 1008.2 |
| 20260509091705 | 74 | 321 | 0.0 | 0.9 | 0.00 | 0.00 | 0.00 | 98 | 1008.1 |
| 20260509091201 | 74 | 269 | 0.0 | 0.0 | 0.00 | 0.00 | 0.00 | 98 | 1008.2 |
| 20260509090659 | 74 | 326 | 0.0 | 0.0 | 0.00 | 0.00 | 0.00 | 98 | 1008.3 |
| 20260509090155 | 74 | 291 | 0.0 | 0.9 | 0.00 | 0.00 | 0.00 | 98 | 1008.2 |
| 20260509085653 | 75 | 280 | 0.0 | 0.0 | 0.00 | 0.00 | 0.00 | 98 | 1008.2 |
| 20260509085149 | 75 | 256 | 0.0 | 0.0 | 0.00 | 0.00 | 0.00 | 98 | 1008.3 |
| 20260509084647 | 75 | 310 | 0.0 | 1.7 | 0.00 | 0.00 | 0.00 | 98 | 1008.3 |
| 20260509084143 | 75 | 297 | 0.0 | 0.0 | 0.00 | 0.00 | 0.00 | 98 | 1008.2 |
| 20260509083641 | 75 | 322 | 0.0 | 1.7 | 0.00 | 0.00 | 0.00 | 98 | 1008.3 |
| 20260509083137 | 75 | 324 | 0.0 | 0.9 | 0.00 | 0.00 | 0.00 | 98 | 1008.2 |
| 20260509082635 | 75 | 304 | 0.0 | 0.9 | 0.00 | 0.00 | 0.00 | 98 | 1008.1 |
| 20260509082131 | 75 | 293 | 0.0 | 0.9 | 0.00 | 0.00 | 0.00 | 98 | 1008.2 |
| 20260509081628 | 75 | 89 | 0.0 | 1.7 | 0.00 | 0.00 | 0.00 | 98 | 1008.2 |
| 20260509081126 | 75 | 224 | 0.0 | 0.9 | 0.00 | 0.00 | 0.00 | 98 | 1008.2 |
| 20260509080623 | 75 | 149 | 0.0 | 1.7 | 0.00 | 0.00 | 0.00 | 98 | 1008.0 |
| 20260509080121 | 75 | 242 | 0.0 | 2.6 | 0.00 | 0.00 | 0.00 | 98 | 1007.9 |
| 20260509075619 | 75 | 222 | 0.0 | 1.7 | 0.00 | 0.00 | 0.00 | 98 | 1008.2 |
| 20260509075116 | 75 | 144 | 0.0 | 1.7 | 0.00 | 0.00 | 0.00 | 98 | 1008.1 |
| 20260509074613 | 75 | 319 | 0.0 | 1.7 | 0.00 | 0.00 | 0.00 | 98 | 1008.0 |
| 20260509074110 | 75 | 149 | 0.9 | 2.6 | 0.00 | 0.00 | 0.00 | 98 | 1008.2 |
| 20260509073606 | 75 | 180 | 1.7 | 1.7 | 0.00 | 0.00 | 0.00 | 98 | 1008.1 |
| 20260509073103 | 74 | 243 | 0.9 | 1.7 | 0.00 | 0.00 | 0.00 | 98 | 1008.2 |
| 20260509072559 | 74 | 333 | 0.0 | 1.7 | 0.00 | 0.00 | 0.00 | 98 | 1008.2 |
| 20260509072056 | 74 | 286 | 0.9 | 1.7 | 0.00 | 0.00 | 0.00 | 98 | 1008.1 |
| 20260509071553 | 74 | 163 | 1.7 | 3.5 | 0.00 | 0.00 | 0.00 | 97 | 1007.9 |
| 20260509071050 | 74 | 185 | 1.7 | 2.6 | 0.00 | 0.00 | 0.00 | 97 | 1008.2 |
| 20260509070547 | 74 | 187 | 1.7 | 1.7 | 0.00 | 0.00 | 0.00 | 97 | 1008.0 |
| 20260509070038 | 74 | 205 | 0.0 | 1.7 | 0.00 | 0.00 | 0.00 | 97 | 1008.2 |
| 20260509065533 | 74 | 230 | 0.0 | 2.6 | 0.00 | 0.00 | 0.00 | 97 | 1008.3 |
| 20260509065029 | 74 | 173 | 0.9 | 2.6 | 0.00 | 0.00 | 0.00 | 97 | 1008.2 |
| 20260509064527 | 74 | 189 | 0.9 | 1.7 | 0.00 | 0.00 | 0.00 | 97 | 1008.4 |
| 20260509064026 | 74 | 114 | 0.0 | 1.7 | 0.00 | 0.00 | 0.00 | 97 | 1008.3 |
| 20260509063525 | 74 | 201 | 0.9 | 1.7 | 0.00 | 0.00 | 0.00 | 97 | 1008.4 |
| 20260509063023 | 74 | 201 | 0.0 | 1.7 | 0.00 | 0.00 | 0.00 | 97 | 1008.3 |
| 20260509062520 | 74 | 235 | 0.9 | 1.7 | 0.00 | 0.00 | 0.00 | 97 | 1008.5 |
| 20260509062018 | 74 | 130 | 0.0 | 1.7 | 0.00 | 0.00 | 0.00 | 97 | 1008.7 |
| 20260509061514 | 74 | 194 | 0.9 | 1.7 | 0.00 | 0.00 | 0.00 | 97 | 1008.6 |
| 20260509061012 | 74 | 249 | 0.9 | 0.9 | 0.00 | 0.00 | 0.00 | 97 | 1008.7 |
| 20260509060509 | 74 | 256 | 0.0 | 1.7 | 0.00 | 0.00 | 0.00 | 97 | 1008.6 |
| 20260509060005 | 74 | 244 | 0.0 | 1.7 | 0.00 | 0.00 | 0.00 | 97 | 1008.8 |
| 20260509055500 | 74 | 242 | 0.0 | 1.7 | 0.00 | 0.00 | 0.00 | 97 | 1008.5 |
| 20260509054957 | 74 | 170 | 1.7 | 2.6 | 0.00 | 0.00 | 0.00 | 97 | 1008.7 |
| 20260509054454 | 74 | 6 | 0.0 | 3.5 | 0.00 | 0.00 | 0.00 | 96 | 1008.6 |
| 20260509053952 | 74 | 128 | 0.9 | 2.6 | 0.00 | 0.00 | 0.00 | 96 | 1008.7 |
| 20260509053449 | 74 | 207 | 1.7 | 3.5 | 0.00 | 0.00 | 0.00 | 96 | 1008.5 |
| 20260509052947 | 74 | 336 | 0.0 | 1.7 | 0.00 | 0.00 | 0.00 | 96 | 1008.7 |
| 20260509052444 | 74 | 187 | 1.7 | 4.3 | 0.00 | 0.00 | 0.00 | 96 | 1008.8 |
| 20260509051942 | 74 | 178 | 1.7 | 2.6 | 0.00 | 0.00 | 0.00 | 96 | 1008.9 |
| 20260509051439 | 74 | 189 | 2.6 | 2.6 | 0.00 | 0.00 | 0.00 | 96 | 1008.8 |
| 20260509050936 | 74 | 223 | 0.9 | 2.6 | 0.00 | 0.00 | 0.00 | 96 | 1008.8 |
| 20260509050433 | 74 | 332 | 1.7 | 1.7 | 0.00 | 0.00 | 0.00 | 97 | 1008.6 |
| 20260509045930 | 74 | 96 | 0.0 | 2.6 | 0.00 | 0.00 | 0.00 | 97 | 1008.6 |
| 20260509045427 | 74 | 289 | 0.9 | 2.6 | 0.00 | 0.00 | 0.00 | 97 | 1008.7 |
| 20260509044923 | 74 | 219 | 0.9 | 1.7 | 0.00 | 0.00 | 0.00 | 97 | 1008.8 |
| 20260509044421 | 74 | 244 | 0.0 | 1.7 | 0.00 | 0.00 | 0.00 | 97 | 1009.0 |
| 20260509043919 | 74 | 276 | 0.9 | 1.7 | 0.00 | 0.00 | 0.00 | 97 | 1009.0 |
| 20260509043414 | 74 | 315 | 0.0 | 1.7 | 0.00 | 0.00 | 0.00 | 97 | 1008.8 |
| 20260509042910 | 74 | 258 | 0.0 | 1.7 | 0.00 | 0.00 | 0.00 | 97 | 1008.8 |
| 20260509042407 | 74 | 315 | 1.7 | 1.7 | 0.00 | 0.00 | 0.00 | 97 | 1008.9 |
| 20260509041903 | 73 | 166 | 0.9 | 0.9 | 0.00 | 0.00 | 0.00 | 97 | 1009.0 |
| 20260509041400 | 73 | 229 | 0.0 | 1.7 | 0.00 | 0.00 | 0.00 | 97 | 1009.0 |
| 20260509040858 | 73 | 211 | 1.7 | 1.7 | 0.00 | 0.00 | 0.00 | 97 | 1008.7 |
| 20260509040356 | 73 | 326 | 1.7 | 2.6 | 0.00 | 0.00 | 0.00 | 97 | 1008.4 |
| 20260509035848 | 73 | 191 | 0.0 | 1.7 | 0.00 | 0.00 | 0.00 | 97 | 1008.6 |
| 20260509035344 | 73 | 352 | 0.0 | 1.7 | 0.00 | 0.00 | 0.00 | 97 | 1008.6 |
| 20260509034840 | 73 | 303 | 1.7 | 2.6 | 0.00 | 0.00 | 0.00 | 97 | 1008.4 |
| 20260509034338 | 73 | 292 | 0.9 | 2.6 | 0.00 | 0.00 | 0.00 | 97 | 1008.3 |
| 20260509033834 | 73 | 288 | 1.7 | 2.6 | 0.00 | 0.00 | 0.00 | 97 | 1008.4 |
| 20260509033332 | 73 | 161 | 0.0 | 2.6 | 0.00 | 0.00 | 0.00 | 97 | 1008.4 |
| 20260509032828 | 73 | 186 | 0.9 | 2.6 | 0.00 | 0.00 | 0.00 | 97 | 1008.4 |
| 20260509032326 | 73 | 231 | 0.0 | 2.6 | 0.00 | 0.00 | 0.00 | 97 | 1008.4 |
| 20260509031824 | 73 | 287 | 1.7 | 3.5 | 0.00 | 0.00 | 0.00 | 96 | 1008.2 |
| 20260509031320 | 73 | 160 | 1.7 | 3.5 | 0.00 | 0.00 | 0.00 | 96 | 1008.4 |
| 20260509030818 | 73 | 157 | 1.7 | 1.7 | 0.00 | 0.00 | 0.00 | 96 | 1008.5 |
| 20260509030316 | 73 | 174 | 0.9 | 3.5 | 0.00 | 0.00 | 0.00 | 96 | 1008.3 |
| 20260509025812 | 73 | 240 | 1.7 | 3.5 | 0.00 | 0.00 | 0.00 | 96 | 1008.3 |
| 20260509025308 | 73 | 268 | 0.9 | 3.5 | 0.00 | 0.00 | 0.00 | 96 | 1008.5 |
| 20260509024804 | 74 | 273 | 0.9 | 4.3 | 0.00 | 0.00 | 0.00 | 95 | 1008.1 |
| 20260509024300 | 74 | 301 | 1.7 | 3.5 | 0.00 | 0.00 | 0.00 | 95 | 1008.2 |
| 20260509023757 | 74 | 151 | 0.9 | 2.6 | 0.00 | 0.00 | 0.00 | 95 | 1008.2 |
| 20260509023254 | 74 | 225 | 1.7 | 2.6 | 0.00 | 0.00 | 0.00 | 95 | 1007.8 |
| 20260509022750 | 74 | 124 | 1.7 | 2.6 | 0.00 | 0.00 | 0.00 | 95 | 1008.2 |
| 20260509022248 | 74 | 260 | 2.6 | 2.6 | 0.00 | 0.00 | 0.00 | 95 | 1008.1 |
| 20260509021745 | 74 | 17 | 1.7 | 2.6 | 0.00 | 0.00 | 0.00 | 95 | 1007.9 |
| 20260509021242 | 74 | 238 | 0.0 | 2.6 | 0.00 | 0.00 | 0.00 | 95 | 1007.7 |